Estación de El Tambo INIA
Ultimos registro cada 15 minutos 29
| N° | Estación | Fecha / Hora | Temperatura | Humedad | Lluvia | Velocidad | Dirección | Radiación | Presion |
| 29 | El Tambo INIA | 31-08-2026 07:00 | 7,7 | 91,2 | 0 | 0 | 0 | 0,8 | 993 |
| 28 | El Tambo INIA | 31-08-2026 06:45 | 7,5 | 92,7 | 0 | 0 | 0 | 0 | 993 |
| 27 | El Tambo INIA | 31-08-2026 06:30 | 8 | 91,2 | 0 | 0 | 36 | 0 | 993 |
| 26 | El Tambo INIA | 31-08-2026 06:15 | 8,4 | 89,4 | 0 | 0 | 0 | 0 | 993 |
| 25 | El Tambo INIA | 31-08-2026 06:00 | 7,9 | 90,1 | 0 | 0 | 0 | 0 | 993 |
| 24 | El Tambo INIA | 31-08-2026 05:45 | 7,6 | 91,3 | 0 | 0 | 0 | 0 | 993 |
| 23 | El Tambo INIA | 31-08-2026 05:30 | 7,7 | 91,8 | 0 | 0 | 0 | 0 | 993 |
| 22 | El Tambo INIA | 31-08-2026 05:15 | 8,1 | 90,1 | 0 | 0 | 0 | 0 | 993 |
| 21 | El Tambo INIA | 31-08-2026 05:00 | 8,5 | 88,1 | 0 | 0 | 167 | 0 | 993 |
| 20 | El Tambo INIA | 31-08-2026 04:45 | 8,3 | 89,3 | 0 | 0 | 139 | 0 | 993 |
| 19 | El Tambo INIA | 31-08-2026 04:30 | 8,4 | 88,8 | 0 | 0 | 139 | 0 | 993 |
| 18 | El Tambo INIA | 31-08-2026 04:15 | 8,1 | 91,2 | 0 | 0 | 75 | 0 | 993 |
| 17 | El Tambo INIA | 31-08-2026 04:00 | 8,5 | 88,8 | 0 | 0 | 0 | 0 | 993 |
| 16 | El Tambo INIA | 31-08-2026 03:45 | 8,9 | 88,1 | 0 | 0 | 0 | 0 | 992 |
| 15 | El Tambo INIA | 31-08-2026 03:30 | 9,7 | 84,6 | 0 | 0 | 248 | 0,1 | 992 |
| 14 | El Tambo INIA | 31-08-2026 03:15 | 9,9 | 81,8 | 0 | 0 | 260 | 0 | 992 |
| 13 | El Tambo INIA | 31-08-2026 03:00 | 10,2 | 80,4 | 0 | 0,1 | 240 | 0,1 | 992 |
| 12 | El Tambo INIA | 31-08-2026 02:45 | 10,4 | 82,5 | 0 | 0 | 0 | 0 | 992 |
| 11 | El Tambo INIA | 31-08-2026 02:30 | 11 | 78,1 | 0 | 0 | 212 | 0 | 992 |
| 10 | El Tambo INIA | 31-08-2026 02:15 | 11 | 76,6 | 0 | 0 | 0 | 0 | 992 |
| 9 | El Tambo INIA | 31-08-2026 02:00 | 11,1 | 79,5 | 0 | 0 | 204 | 0 | 992 |
| 8 | El Tambo INIA | 31-08-2026 01:45 | 11,1 | 77,6 | 0 | 0 | 298 | 0 | 992 |
| 7 | El Tambo INIA | 31-08-2026 01:30 | 11,3 | 80 | 0 | 0 | 0 | 0 | 992 |
| 6 | El Tambo INIA | 31-08-2026 01:15 | 11,8 | 76,4 | 0 | 0 | 220 | 0 | 991 |
| 5 | El Tambo INIA | 31-08-2026 01:00 | 11,4 | 71,2 | 0 | 0 | 218 | 0 | 991 |
| 4 | El Tambo INIA | 31-08-2026 00:45 | 11,3 | 77,1 | 0 | 0 | 192 | 0 | 991 |
| 3 | El Tambo INIA | 31-08-2026 00:30 | 11,3 | 77,2 | 0 | 0 | 70 | 0 | 991 |
| 2 | El Tambo INIA | 31-08-2026 00:15 | 11,3 | 78,6 | 0 | 0 | 0 | 0 | 991 |
| 1 | El Tambo INIA | 31-08-2026 00:00 | 11,5 | 77,6 | 0 | 0 | 0 | 0 | 991 |